Concordia, KS

3:11 AM CDT on October 21, 2019 (GMT -0500)
Blosser Municipal

Weather History for KCNK - August, 2019

Change the Weather History Date:

Sunday, August 18, 2019

  Actual Average Record
Temperature  
Mean Temperature 80 °F 77 °F  
Max Temperature 89 °F 89 °F 109 °F (1934)
Min Temperature 70 °F 66 °F 52 °F (2012)
Degree Days  
Heating Degree Days 0 0  
Month to date heating degree days 0 0  
Since 1 June heating degree days 0 13  
Since 1 July heating degree days 0 0  
Cooling Degree Days 15 12  
Month to date cooling degree days 239 236  
Year to date cooling degree days 1144 1026  
Since 1 June cooling degree days 1044 937  
Growing Degree Days 30 (Base 50)    
Moisture  
Dew Point 66 °F    
Average Humidity 71    
Maximum Humidity 93    
Minimum Humidity 48    
Precipitation  
Precipitation T in 0.09 in 1.59 in (1963)
Month to date precipitation 4.67 1.90  
Year to date precipitation 26.90 19.86  
Snow  
Snow 0.00 in 0.00 in T in (1986)
Month to date snowfall 0.0 0.0  
Year to date snowfall 32.3 13.7  
Since 1 July snowfall 0.0 0.0  
Snow Depth 0.00 in    
Sea Level Pressure  
Sea Level Pressure 29.79 in    
Wind  
Wind Speed 10 mph (WNW)    
Max Wind Speed 36 mph    
Max Gust Speed 50 mph    
Visibility 10 miles    
Events Rain    
T = Trace of Precipitation, MM = Missing Value Source: NWS Daily Summary

Daily Weather History Graph

Daily Weather History Graph

Search for Another Location

Airport or City:

Astronomy

Aug. 18, 2019 Rise Set
Actual Time 6:45 AM CDT 8:22 PM CDT
Civil Twilight 6:17 AM CDT 8:51 PM CDT
Nautical Twilight 5:42 AM CDT 9:25 PM CDT
Astronomical Twilight 5:05 AM CDT 10:01 PM CDT
Moon 10:18 PM CDT (8/18) 9:31 AM CDT (8/18)
Length of Visible Light 14h 33m
Length of Day
13h 36m
Waning Gibbous, 91% of the Moon is Illuminated
Aug 18
Waning Gibbous
Aug 23
Last Quarter
Aug 30
New
Sep 5
First Quarter
Sep 13
Full

Hourly Weather History & Observations

Time (CDT) Temp. Heat Index Dew Point Humidity Pressure Visibility Wind Dir Wind Speed Gust Speed Precip Events Conditions
12:55 AM 79.0 °F - 75.0 °F 88% 29.62 in 10.0 mi SSW 5.8 mph - N/A   Clear
1:55 AM 80.1 °F 80.7 °F 59.0 °F 48% 29.63 in 10.0 mi SW 25.3 mph 40.3 mph N/A   Clear
2:55 AM 75.0 °F - 60.1 °F 60% 29.64 in 10.0 mi SSW 17.3 mph 35.7 mph N/A   Clear
3:55 AM 78.1 °F - 57.9 °F 50% 29.67 in 10.0 mi SSW 23.0 mph 34.5 mph N/A   Clear
4:55 AM 75.9 °F - 59.0 °F 56% 29.71 in 10.0 mi SSW 23.0 mph 33.4 mph N/A   Clear
5:55 AM 88.0 °F - 50.0 °F 27% 29.60 in 10.0 mi SW 19.6 mph 46.0 mph 0.00 in Rain Light Rain
6:55 AM 73.9 °F - 59.0 °F 59% 29.73 in 10.0 mi WNW 17.3 mph 27.6 mph 0.00 in   Clear
7:04 AM 73.0 °F - 59.0 °F 61% 29.77 in 10.0 mi West 11.5 mph 27.6 mph N/A   Clear
7:55 AM 72.0 °F - 61.0 °F 68% 29.77 in 10.0 mi WNW 9.2 mph - N/A   Clear
8:55 AM 75.9 °F - 64.0 °F 67% 29.80 in 10.0 mi NW 9.2 mph - N/A   Clear
9:55 AM 77.0 °F - 66.9 °F 71% 29.83 in 10.0 mi WNW 13.8 mph 19.6 mph N/A   Clear
10:55 AM 79.0 °F - 68.0 °F 69% 29.85 in 10.0 mi NW 5.8 mph - N/A   Clear
11:55 AM 80.1 °F 82.7 °F 68.0 °F 67% 29.87 in 10.0 mi NW 8.1 mph - N/A   Clear
12:55 PM 82.0 °F 85.5 °F 69.1 °F 65% 29.88 in 10.0 mi North 9.2 mph - N/A   Clear
1:55 PM 82.9 °F 85.8 °F 68.0 °F 60% 29.86 in 10.0 mi NW 6.9 mph - N/A   Partly Cloudy
2:55 PM 84.9 °F 88.8 °F 69.1 °F 59% 29.85 in 10.0 mi NNW 6.9 mph - N/A   Clear
3:55 PM 86.0 °F 91.5 °F 71.1 °F 61% 29.83 in 10.0 mi NW 9.2 mph - N/A   Partly Cloudy
4:55 PM 86.0 °F 89.4 °F 68.0 °F 55% 29.83 in 10.0 mi WNW 9.2 mph - N/A   Partly Cloudy
5:55 PM 86.0 °F 90.1 °F 69.1 °F 57% 29.83 in 10.0 mi NW 4.6 mph - N/A   Clear
6:55 PM 86.0 °F 89.4 °F 68.0 °F 55% 29.83 in 10.0 mi Calm Calm - N/A   Clear
7:55 PM 82.9 °F 87.0 °F 70.0 °F 65% 29.84 in 10.0 mi Calm Calm - N/A   Clear
8:55 PM 77.0 °F - 71.1 °F 82% 29.86 in 10.0 mi NE 3.5 mph - N/A   Clear
9:55 PM 75.0 °F - 71.1 °F 87% 29.88 in 10.0 mi East 3.5 mph - N/A   Clear
10:55 PM 73.9 °F - 70.0 °F 87% 29.89 in 10.0 mi East 4.6 mph - N/A   Clear
11:55 PM 72.0 °F - 70.0 °F 93% 29.90 in 10.0 mi ENE 4.6 mph - N/A   Clear